Wetbulb
62.67 62.46 62.41 61.53 61.18 61.40 60.70 59.32 58.19 54.00 53.30 53.81 55.15 57.68 60.04 60.35 59.47 60.15 60.35 55.17 50.46 50.08 50.42 52.28 54.06 55.45 56.74 57.22 57.99 58.71 59.29 59.50 59.73 59.71 59.74 59.79 60.03 60.06
62.09 61.92 62.17 61.96 61.80 61.84 61.10 59.87 59.26 58.52 54.77 56.09 55.71 56.29 57.39 58.99 58.67 59.35 60.07 55.32 50.84 48.49 48.47 49.36 51.02 52.92 53.96 55.00 55.57 56.13 57.07 57.82 58.43 58.59 58.75 58.83 59.16 59.51
61.39 61.07 60.74 60.80 61.04 61.43 61.34 60.64 59.69 59.40 56.78 55.91 55.27 56.11 56.13 57.05 59.11 60.07 60.11 60.31 59.90 49.03 47.74 48.09 48.05 49.10 50.28 51.10 51.99 53.34 54.45 55.39 56.27 56.97 57.50 58.01 58.72 59.17
48.86 51.09 48.86 53.69 57.75 55.88 60.43 60.28 60.11 59.14 57.98 56.32 54.59 55.16 55.78 57.17 58.82 59.15 59.49 60.63 60.84 54.80 49.01 47.89 48.05 47.63 47.51 47.89 48.27 49.32 50.75 51.95 52.76 53.90 55.01 56.07 57.09 57.88
39.77 40.96 40.70 42.80 43.09 45.63 49.20 50.65 53.51 57.71 58.14 57.30 56.05 56.70 56.99 56.81 56.89 57.77 58.56 58.80 59.42 55.52 49.37 47.74 48.25 47.13 46.73 46.58 47.09 47.45 48.18 48.92 49.34 50.21 50.84 52.16 53.15 54.46
35.66 35.22 37.58 39.41 38.85 41.32 42.00 42.18 45.19 48.35 51.62 54.42 56.43 56.69 56.83 56.91 56.67 55.78 55.68 57.59 57.84 58.87 55.02 52.24 49.36 47.31 47.07 46.91 45.46 46.15 46.66 47.18 47.58 47.51 47.56 47.92 48.27 50.33
33.52 33.51 33.51 35.95 36.82 35.63 35.73 34.90 36.90 40.91 45.58 47.16 49.78 52.47 50.84 50.03 47.87 44.68 53.28 56.35 57.95 58.44 57.91 57.47 55.10 52.41 50.96 46.42 47.54 45.77 45.44 45.57 46.10 46.80 47.35 47.06 46.58 47.78
31.62 31.87 32.52 32.70 33.93 34.07 34.10 33.79 32.97 32.90 35.28 38.00 39.49 39.37 38.72 36.71 36.76 37.26 40.05 46.75 51.32 49.11 54.70 57.00 53.19 53.85 53.45 52.52 46.86 45.04 43.92 44.03 44.52 45.01 45.70 46.10 45.81 45.28
29.95 30.51 31.07 31.65 31.96 32.06 31.86 31.55 31.48 32.21 30.45 32.69 32.63 31.17 31.86 31.58 32.22 33.62 37.46 38.23 41.98 43.92 43.66 46.66 43.32 47.82 44.45 42.76 41.71 41.41 41.25 41.68 42.42 42.73 43.40 43.60 43.64 43.36
30.55 29.19 29.50 29.83 30.93 30.98 30.96 29.52 28.90 28.70 30.27 31.36 30.63 30.42 30.88 31.60 31.24 31.68 32.78 34.05 36.25 39.26 40.29 39.57 35.22 35.06 34.15 36.10 39.70 40.16 40.18 40.14 40.28 40.67 41.27 41.63 41.48 41.69
29.77 30.75 28.56 28.48 30.40 31.22 29.10 28.24 26.78 25.67 28.48 30.25 30.91 31.14 31.11 32.21 31.29 29.53 28.01 30.06 32.75 34.50 31.36 32.29 33.43 33.08 32.35 32.35 33.03 36.69 37.61 37.94 38.36 39.15 39.70 40.16 40.51 40.41
27.57 28.21 30.21 28.73 29.03 28.78 27.26 26.75 24.78 23.65 22.88 23.66 24.52 27.10 27.51 28.67 29.59 29.03 27.57 26.51 28.11 31.49 28.39 28.54 32.34 32.17 33.26 29.69 29.78 31.18 32.70 34.75 35.22 35.85 36.41 37.88 39.75 38.48
24.03 24.53 25.10 27.12 27.18 27.18 26.59 24.95 24.63 25.29 25.05 25.84 25.67 25.59 25.75 26.37 26.63 27.60 27.71 26.60 25.14 25.89 28.94 27.46 30.20 32.13 31.36 29.38 28.86 28.96 30.59 31.30 31.24 32.04 33.74 35.21 35.99 34.37
20.22 21.77 22.68 24.68 24.58 24.59 23.60 24.57 23.76 22.75 24.43 23.98 23.65 22.15 21.91 21.31 21.44 23.15 19.01 24.54 27.03 26.15 26.60 26.00 26.94 30.95 29.69 27.90 27.54 27.63 27.50 28.83 30.07 29.99 30.25 31.54 33.01 33.44
19.23 20.30 21.91 21.53 21.06 19.21 22.09 21.79 19.13 17.81 18.37 18.20 16.76 17.36 13.74 17.47 17.36 18.42 18.27 16.80 16.92 17.45 18.71 26.66 25.29 26.38 28.01 28.15 25.90 25.09 25.90 26.72 28.47 28.24 28.54 28.67 28.50 29.12
14.55 13.47 13.35 17.32 13.72 13.86 15.40 16.36 16.53 15.95 14.33 14.39 14.36 12.56 13.19 16.58 14.55 11.37 11.99 13.62 11.17 15.27 19.21 18.55 25.02 22.05 23.76 24.97 25.36 24.39 25.28 24.39 26.40 26.78 27.28 27.97 28.50 28.60
9.65 10.21 9.10 9.24 9.53 10.09 11.29 12.01 13.55 13.51 13.54 15.59 15.82 16.02 16.06 17.22 16.95 15.20 14.36 12.97 10.90 17.65 16.12 17.71 19.32 17.99 23.93 21.40 19.39 19.65 19.07 22.85 25.05 22.69 22.63 23.92 26.92 27.86
10.34 7.58 5.05 4.92 6.56 7.50 7.62 8.82 10.00 10.57 11.09 13.18 13.29 14.17 15.15 16.03 16.68 18.03 18.46 15.79 15.26 16.15 14.84 16.88 17.30 19.15 20.23 20.36 25.87 21.08 21.08 21.43 21.61 23.43 23.62 21.53 24.19 27.36
7.42 5.11 -0.82 2.81 5.81 8.03 7.68 7.62 7.55 8.75 9.63 9.28 10.39 10.78 12.43 13.85 15.79 15.74 15.93 15.82 17.81 18.84 19.68 21.26 19.95 18.03 14.76 12.72 18.74 25.27 21.47 23.83 24.51 22.87 23.79 23.58 22.68 25.66
7.95 3.82 2.80 4.64 6.61 7.17 6.62 5.05 5.10 4.24 4.16 4.89 6.25 6.63 8.23 10.06 12.29 13.50 13.60 10.55 13.40 16.19 18.15 20.77 20.73 20.01 17.21 15.64 13.16 17.83 27.93 22.68 21.97 22.24 23.54 24.74 25.95 28.12
6.36 6.67 2.59 3.99 3.34 4.65 -2.09 -4.51 -7.89 -4.28 -3.30 -4.91 -0.21 2.61 4.22 6.63 8.57 12.45 10.87 8.85 9.22 14.44 14.06 16.11 20.00 21.79 22.08 21.10 16.00 16.22 19.54 26.69 25.76 23.02 23.81 21.71 21.53 22.88
1.00 4.16 4.07 2.88 -1.63 -0.34 -7.53 -14.78 -9.34 -10.83 -3.64 -3.34 -4.18 -2.64 1.57 4.54 7.21 10.06 8.92 8.13 10.88 11.66 12.91 15.99 19.89 22.35 21.70 19.58 15.78 15.00 16.75 19.18 22.91 24.30 24.90 24.13 21.15 18.73
-0.19 1.88 1.01 -2.86 -1.90 -2.36 1.53 -6.99 -8.87 -18.95 -8.16 -5.95 -5.55 -3.28 -0.54 1.82 6.33 9.09 8.38 8.40 10.74 10.78 12.42 13.19 16.27 18.42 17.65 17.93 16.36 15.74 15.45 17.66 18.67 17.89 18.51 23.86 26.65 26.85
MSLP
1002.90 1003.79 1004.45 1005.46 1005.90 1006.49 1006.73 1007.18 1008.03 1009.11 1009.47 1009.13 1009.45 1008.92 1009.08 1009.43 1009.65 1010.03 1010.21 1010.35 1010.82 1011.05 1011.39 1011.83 1012.27 1012.61 1012.93 1013.31 1013.69 1014.07 1014.51 1014.93 1015.40 1015.75 1016.13 1016.51 1016.83 1017.18
1002.53 1003.01 1003.78 1004.73 1005.28 1005.90 1006.29 1006.72 1007.19 1007.82 1008.51 1008.46 1008.55 1008.59 1008.63 1008.90 1009.03 1009.48 1009.63 1009.57 1009.93 1010.43 1010.70 1011.11 1011.35 1011.67 1012.02 1012.44 1012.88 1013.25 1013.53 1013.87 1014.23 1014.72 1015.10 1015.43 1015.80 1016.18
1002.63 1002.74 1003.30 1003.97 1005.08 1005.50 1005.79 1006.36 1006.86 1007.17 1007.72 1007.84 1008.20 1008.48 1008.75 1009.01 1008.91 1008.81 1009.00 1009.30 1009.06 1009.45 1009.54 1009.76 1010.37 1010.85 1011.19 1011.57 1011.88 1012.22 1012.60 1012.92 1013.20 1013.49 1013.88 1014.27 1014.73 1015.17
1004.04 1003.63 1004.55 1004.97 1004.93 1005.52 1005.77 1006.07 1006.37 1006.39 1006.90 1007.53 1007.87 1008.22 1008.43 1008.39 1008.46 1008.48 1008.30 1008.38 1008.50 1008.52 1008.79 1008.98 1009.13 1009.59 1009.90 1010.28 1010.89 1011.30 1011.60 1011.82 1012.12 1012.44 1012.61 1013.02 1013.42 1013.81
1006.32 1006.55 1006.71 1006.38 1006.69 1006.80 1006.67 1006.56 1006.56 1006.39 1006.31 1006.55 1007.24 1007.18 1007.62 1007.78 1007.76 1007.68 1007.52 1007.46 1007.57 1007.44 1007.72 1008.04 1008.33 1008.68 1009.10 1009.44 1009.72 1010.16 1010.61 1010.91 1011.08 1011.21 1011.49 1011.69 1012.10 1012.51
1008.46 1008.13 1007.88 1008.58 1007.77 1008.09 1007.98 1008.51 1007.28 1006.93 1007.01 1006.90 1007.11 1007.01 1007.48 1006.99 1006.96 1007.36 1007.20 1007.13 1007.06 1006.99 1007.07 1007.31 1007.52 1007.87 1008.22 1008.43 1008.73 1008.89 1009.38 1009.75 1010.12 1010.20 1010.38 1010.58 1010.83 1011.05
1010.92 1009.32 1009.29 1011.50 1009.65 1009.00 1009.56 1008.45 1008.38 1008.08 1008.06 1007.89 1008.03 1007.42 1007.66 1007.59 1007.84 1008.42 1007.56 1006.98 1006.54 1006.64 1006.68 1006.77 1006.97 1007.25 1007.25 1007.98 1008.07 1008.48 1008.57 1008.84 1009.02 1009.35 1009.46 1009.58 1009.65 1009.68
1011.80 1011.26 1011.79 1012.68 1015.46 1011.20 1011.12 1010.58 1012.18 1010.79 1010.06 1010.11 1009.62 1010.28 1009.49 1010.14 1010.02 1010.05 1009.61 1008.33 1007.48 1007.09 1006.83 1005.74 1006.21 1006.25 1006.53 1006.66 1007.05 1007.49 1007.74 1008.05 1008.15 1008.36 1008.59 1008.64 1008.66 1008.75
1012.93 1012.81 1012.34 1012.23 1011.37 1011.67 1011.64 1011.57 1012.61 1011.74 1011.83 1011.51 1010.87 1011.89 1011.87 1011.99 1011.77 1011.20 1010.45 1010.19 1009.31 1008.17 1008.49 1006.92 1006.53 1006.30 1006.05 1006.21 1006.69 1007.35 1007.42 1007.50 1007.42 1007.49 1007.79 1007.80 1007.76 1007.72
1015.42 1015.70 1015.57 1014.45 1013.41 1012.99 1012.29 1013.57 1012.87 1012.36 1012.73 1012.98 1013.32 1013.27 1012.98 1013.16 1012.80 1012.47 1011.82 1010.80 1010.10 1009.18 1008.79 1008.23 1007.39 1007.25 1007.12 1007.31 1006.96 1006.89 1007.14 1007.02 1007.16 1007.31 1007.14 1007.08 1006.99 1006.78
1016.07 1015.85 1015.16 1014.68 1014.74 1014.89 1014.73 1014.23 1013.89 1014.18 1014.32 1014.51 1014.50 1014.12 1013.91 1013.26 1012.77 1012.13 1011.91 1011.64 1010.56 1009.74 1010.06 1009.57 1008.56 1008.19 1007.70 1007.53 1007.54 1007.14 1007.19 1007.19 1007.02 1007.03 1006.58 1006.32 1006.16 1006.02
1016.57 1016.82 1016.61 1016.64 1016.37 1016.09 1015.90 1015.77 1015.55 1016.45 1016.19 1015.65 1014.87 1014.36 1013.76 1013.44 1013.63 1013.17 1013.06 1012.74 1012.27 1010.75 1011.02 1010.62 1009.38 1009.20 1008.11 1007.93 1007.97 1007.55 1007.30 1007.44 1007.17 1007.22 1006.67 1006.07 1005.80 1005.51
1018.12 1018.67 1017.74 1017.27 1017.56 1017.40 1017.17 1017.16 1017.14 1017.04 1016.59 1015.70 1015.13 1014.70 1013.91 1014.06 1014.15 1013.56 1013.31 1012.93 1013.15 1012.70 1012.02 1011.58 1010.32 1009.66 1009.36 1008.75 1008.24 1008.10 1007.88 1007.66 1007.69 1007.50 1006.78 1006.41 1006.24 1006.06
1019.81 1019.76 1018.80 1018.84 1018.92 1018.89 1018.64 1018.41 1017.91 1017.34 1016.76 1016.09 1015.64 1014.88 1014.85 1015.01 1014.59 1014.02 1013.68 1013.33 1013.17 1013.11 1012.55 1012.21 1011.28 1010.27 1009.85 1009.29 1009.00 1008.58 1008.53 1008.26 1008.32 1007.77 1007.26 1007.00 1006.70 1006.38
1021.18 1020.59 1020.34 1020.21 1019.73 1019.54 1018.95 1018.42 1017.91 1017.92 1017.84 1017.39 1017.26 1016.80 1016.45 1015.66 1014.75 1014.28 1013.56 1013.53 1013.18 1012.65 1012.42 1012.07 1011.54 1010.71 1010.31 1009.91 1009.40 1009.17 1009.26 1008.76 1008.23 1008.02 1008.16 1007.86 1007.02 1006.83
1022.05 1021.83 1021.96 1021.43 1021.03 1020.69 1020.10 1019.69 1019.63 1019.25 1019.16 1018.67 1018.37 1017.58 1016.65 1016.14 1015.40 1014.73 1014.52 1014.12 1013.83 1012.94 1012.28 1011.55 1011.01 1010.90 1010.71 1010.21 1009.97 1009.66 1009.40 1009.15 1008.88 1008.72 1008.77 1008.63 1008.20 1007.59
1022.77 1022.69 1022.38 1021.92 1021.50 1021.13 1020.98 1020.71 1020.43 1020.38 1019.74 1019.34 1018.75 1017.97 1017.30 1016.61 1016.04 1015.39 1015.05 1015.00 1014.50 1013.83 1013.21 1012.47 1011.58 1011.47 1011.05 1010.76 1010.26 1009.45 1009.98 1009.80 1009.66 1009.44 1009.28 1009.04 1009.12 1008.82
1022.13 1022.57 1022.55 1022.81 1022.65 1022.42 1022.16 1021.75 1021.42 1021.54 1021.39 1020.62 1019.72 1018.97 1018.49 1017.17 1016.55 1015.91 1014.99 1015.00 1014.85 1014.03 1013.40 1013.06 1012.48 1011.56 1011.07 1010.86 1010.83 1010.39 1009.96 1010.04 1010.10 1009.99 1009.71 1009.51 1009.58 1009.63
1024.12 1024.11 1024.17 1024.20 1024.19 1023.83 1023.78 1023.56 1023.15 1022.88 1022.27 1021.55 1020.68 1019.74 1018.95 1017.97 1017.37 1016.50 1015.69 1015.29 1014.52 1013.99 1013.46 1012.89 1012.69 1012.03 1012.04 1012.15 1011.30 1011.34 1010.43 1009.80 1009.90 1010.47 1009.92 1009.81 1010.30 1010.10
1024.89 1025.40 1025.45 1025.23 1024.90 1024.60 1024.49 1024.58 1024.18 1023.52 1022.80 1021.90 1021.02 1020.37 1019.80 1019.16 1017.87 1016.97 1016.63 1015.84 1015.44 1014.16 1013.86 1013.29 1012.44 1012.75 1012.73 1012.05 1012.25 1011.58 1010.75 1010.21 1010.37 1010.44 1010.57 1009.99 1010.74 1011.03
1026.48 1026.25 1025.98 1025.88 1025.48 1025.30 1025.57 1025.25 1024.90 1024.12 1023.18 1022.65 1022.26 1021.35 1020.67 1019.86 1018.67 1017.96 1017.68 1016.60 1016.06 1014.87 1013.95 1013.86 1013.36 1012.14 1012.85 1013.16 1012.51 1012.43 1011.31 1011.23 1010.45 1010.90 1010.69 1010.89 1010.80 1011.63
1026.26 1025.96 1025.63 1025.53 1025.43 1025.80 1025.65 1025.55 1025.24 1024.41 1023.82 1023.88 1023.33 1022.27 1021.74 1020.81 1019.54 1018.48 1018.24 1017.30 1016.06 1015.45 1014.96 1013.96 1013.31 1012.25 1012.30 1012.80 1013.43 1013.01 1012.25 1012.43 1011.57 1011.67 1011.28 1011.41 1011.41 1011.53
1026.00 1025.98 1025.78 1025.56 1025.59 1025.60 1025.39 1025.24 1025.12 1025.06 1024.58 1024.56 1023.84 1022.94 1021.91 1020.74 1019.84 1019.17 1018.53 1017.77 1016.92 1015.83 1015.07 1014.30 1013.27 1012.81 1012.39 1013.01 1013.67 1013.41 1013.08 1012.95 1012.51 1012.36 1012.49 1012.22 1011.85 1011.74
Wind_Speed
14 13 10 8 6 8 5 5 7 6 6 4 5 7 7 6 9 8 10 11 16 17 18 19 19 20 22 21 23 24 25 26 26 27 26 26 26 27
9 14 11 7 8 7 6 4 5 6 6 7 7 3 4 4 6 7 10 11 13 16 17 17 19 21 21 21 21 22 24 25 26 26 26 26 27 27
9 9 8 7 7 6 5 6 7 7 9 2 2 3 4 5 5 7 7 9 7 17 19 20 20 20 20 20 21 22 24 25 26 27 27 27 27 27
10 10 9 4 1 1 6 9 9 8 7 9 4 4 7 7 8 8 7 7 8 11 16 18 21 21 21 21 19 20 22 23 24 26 27 28 28 29
15 13 12 10 9 7 5 3 2 3 8 7 7 3 8 4 5 5 5 7 7 10 13 17 18 20 20 19 20 20 20 22 23 26 26 27 28 28
13 14 16 12 13 9 8 10 7 4 2 1 6 8 7 4 4 4 4 6 8 7 9 12 11 16 17 19 19 20 21 21 22 22 23 26 27 28
13 15 14 17 19 21 8 11 11 8 4 3 4 2 4 4 5 5 5 4 7 8 8 8 7 6 7 14 12 17 16 19 21 22 25 26 26 29
11 13 12 14 4 18 19 22 14 7 9 3 5 5 5 4 6 6 5 3 3 8 7 11 7 7 6 5 9 13 15 17 18 20 22 23 22 25
16 14 14 13 20 14 17 20 15 21 12 9 9 7 5 8 7 7 4 4 4 4 7 5 3 5 1 3 3 5 7 9 12 16 19 20 21 22
13 12 11 13 17 14 13 9 12 12 13 7 6 5 6 6 6 6 8 6 7 6 5 4 3 2 3 4 4 4 7 8 10 12 15 18 19 20
12 15 15 16 24 21 11 12 12 11 12 15 12 12 12 11 13 6 7 5 3 2 7 3 3 4 2 1 2 9 7 7 8 10 11 14 17 17
11 13 24 18 24 23 12 10 10 8 7 8 6 8 9 11 12 5 5 5 4 3 5 6 3 3 4 1 2 3 3 9 11 11 12 13 11 4
10 9 10 25 24 24 20 12 11 7 8 7 6 6 6 7 6 5 4 2 2 3 6 5 3 3 3 4 2 3 3 2 2 2 9 11 9 5
10 8 11 23 22 22 14 21 19 10 7 7 8 8 7 6 7 6 4 3 2 4 7 5 4 3 3 2 3 2 2 3 2 2 3 7 14 15
8 16 20 20 20 14 23 22 14 9 8 8 7 6 4 6 6 4 4 4 4 3 2 4 5 6 3 4 3 1 2 1 2 2 3 3 3 3
8 8 8 11 9 9 10 11 8 8 5 5 6 5 4 6 4 3 4 4 3 4 6 3 7 4 3 2 2 2 1 2 3 3 2 3 4 4
4 5 7 7 9 9 8 9 8 9 9 9 8 8 6 6 6 4 2 3 2 3 5 4 5 2 5 2 2 2 2 2 2 1 3 3 3 4
10 9 10 9 9 9 9 9 8 9 9 8 8 8 7 7 7 7 4 3 2 3 2 3 4 4 3 3 11 3 2 1 1 2 2 3 4 3
6 5 4 6 6 7 7 7 7 8 9 8 7 8 8 8 8 7 7 5 5 5 5 4 3 1 2 2 3 13 2 1 1 1 2 3 2 4
4 2 3 4 6 6 7 7 7 7 7 8 8 8 8 8 8 7 8 4 6 4 4 5 4 4 2 2 2 2 14 2 2 2 4 6 7 12
2 2 1 1 2 4 3 4 4 5 6 6 6 7 8 8 8 7 7 8 5 4 5 4 4 1 1 1 2 3 4 17 11 2 3 4 3 2
3 2 2 1 1 2 2 2 3 4 6 6 6 5 6 6 7 7 6 6 6 4 5 6 5 2 1 0 1 1 2 3 11 18 17 9 1 3
4 3 4 3 3 3 3 3 3 4 3 5 6 6 7 7 7 7 6 6 6 5 5 5 4 2 2 2 1 1 2 2 2 5 7 14 12 10
Wind_Direction
191 188 190 200 188 205 179 164 186 204 232 239 232 205 207 208 227 211 215 216 216 213 213 214 216 213 212 212 214 217 220 222 225 226 225 224 224 225
190 183 179 177 182 188 188 172 182 209 228 195 218 224 187 208 212 208 225 207 209 215 217 218 216 215 214 213 216 219 219 220 222 224 223 221 223 224
201 183 180 169 190 188 187 186 198 192 220 185 203 212 209 221 233 223 224 227 230 215 212 213 216 216 214 216 216 216 219 223 224 222 222 224 223 225
25 70 53 3 83 79 202 205 207 199 193 218 195 208 221 218 227 214 203 218 236 228 219 220 219 217 212 212 215 218 222 221 221 223 221 220 221 223
47 37 39 50 46 10 9 55 328 229 196 198 230 218 229 208 208 237 230 227 234 241 220 222 222 214 216 217 217 220 224 227 224 221 220 222 222 223
44 35 41 24 46 27 41 353 9 5 348 233 221 223 219 218 186 212 232 219 246 237 233 236 217 220 221 221 217 216 226 227 230 227 224 224 221 221
19 54 51 34 52 49 35 39 6 12 331 62 320 326 29 9 23 357 298 298 251 233 240 236 216 211 216 230 232 230 231 232 230 233 234 232 229 225
35 46 46 60 198 75 59 61 34 14 36 352 42 317 48 20 359 340 323 320 293 32 294 242 190 209 215 200 194 219 220 230 235 238 240 239 235 229
35 27 29 18 11 24 43 45 37 39 41 21 40 18 359 9 338 318 326 318 286 324 340 293 347 245 149 139 180 272 266 255 244 242 245 243 240 233
51 47 42 38 31 25 30 33 34 34 25 30 32 16 10 348 342 302 296 296 274 269 321 262 4 258 352 349 354 317 297 284 278 266 253 250 244 238
36 43 40 35 36 32 25 28 28 23 11 24 32 30 18 10 19 356 7 333 287 355 19 331 352 314 316 341 8 18 12 349 339 318 294 263 251 244
38 35 37 43 39 38 34 25 31 8 352 356 9 15 19 16 7 28 1 348 320 305 21 339 337 334 310 40 2 5 7 14 34 25 14 6 301 233
40 31 32 36 31 32 32 28 20 356 354 12 15 6 12 6 353 345 353 10 328 288 1 340 317 311 274 316 335 356 0 4 5 357 37 38 42 60
31 19 28 32 32 29 31 27 21 7 11 12 8 8 2 349 336 322 313 306 255 263 307 307 275 310 313 301 278 357 350 358 343 2 37 59 66 69
27 30 29 28 26 19 21 19 15 12 8 13 360 347 312 307 309 324 328 317 287 268 284 324 299 289 271 274 305 306 294 320 11 26 6 18 59 77
27 26 17 26 26 14 11 13 10 10 356 353 342 301 310 341 332 344 349 336 346 322 319 338 13 355 318 319 295 298 316 321 8 29 35 31 35 55
45 41 30 23 21 18 13 10 6 5 4 352 351 346 345 344 341 324 313 320 17 317 317 315 321 340 27 359 352 24 328 5 3 358 31 68 40 47
25 24 20 16 16 11 6 359 3 3 352 344 348 346 338 340 339 334 343 319 301 303 306 304 318 332 351 346 34 338 359 97 348 13 21 69 67 51
42 18 24 14 1 5 2 355 350 352 342 345 342 343 342 337 339 334 341 338 329 328 313 325 315 356 354 306 322 4 340 33 77 23 63 58 55 66
25 1 352 1 357 354 358 348 343 343 345 344 340 342 339 330 330 342 337 330 321 318 325 333 342 340 306 242 235 296 7 42 43 79 86 84 76 77
302 324 302 318 335 341 332 331 320 334 333 333 329 332 333 333 326 333 326 328 313 332 326 317 309 299 219 296 360 336 9 38 58 38 85 80 88 63
232 240 241 238 288 280 291 309 310 344 347 335 326 316 313 317 316 324 323 321 327 314 294 289 305 265 352 251 317 324 14 359 47 57 49 47 137 142
264 272 292 299 299 299 318 346 344 319 328 319 319 315 313 317 320 315 317 315 316 322 325 314 321 1 50 66 29 15 72 19 32 53 41 37 53 91